SCP
0 0 0 0 0 0 0 0 0 0 0 0 0 0 0 0 0 0 1 0 0 0 0 0 0 1 1 1 1 0 0 0 0 0 0 0 0 0
0 0 0 0 0 0 0 0 0 0 0 0 0 0 0 0 0 1 1 0 0 0 0 0 0 0 0 0 0 0 0 0 0 0 0 0 0 0
0 0 0 0 0 0 0 0 0 0 0 0 0 0 0 0 0 1 1 0 0 0 0 0 0 0 0 0 0 0 0 0 0 0 0 0 0 0
0 0 0 0 0 0 0 0 0 0 0 0 0 0 0 0 0 0 0 0 0 0 0 0 0 0 0 0 0 0 0 0 0 0 0 0 0 0
0 0 0 0 0 0 0 0 0 0 0 0 0 0 0 0 0 0 0 0 0 0 0 0 0 0 0 0 0 0 0 0 0 0 0 0 0 0
0 0 0 0 0 0 0 0 0 0 0 0 0 0 0 0 0 0 0 0 0 0 0 0 0 0 0 0 0 0 0 0 0 0 0 0 0 0
0 0 0 0 0 0 0 0 0 0 0 0 0 0 0 0 0 0 0 0 0 0 0 0 0 0 0 0 0 0 0 0 0 0 0 0 0 0
0 0 0 0 0 0 0 0 0 0 0 0 0 0 0 0 0 0 0 0 0 0 0 0 0 0 0 0 0 0 0 0 0 0 0 0 0 0
0 0 0 0 0 0 0 0 0 0 0 0 0 0 0 0 0 0 0 0 0 0 0 0 0 0 0 0 0 0 0 0 0 0 0 0 0 0
0 0 0 0 0 0 0 0 0 0 0 0 0 0 0 0 0 0 0 0 0 0 0 0 0 0 0 0 0 0 0 0 0 0 0 0 0 0
0 0 0 0 0 0 0 0 0 0 0 0 0 0 0 0 0 0 0 0 0 0 0 0 0 0 0 0 0 0 0 0 0 0 0 0 0 0
0 0 0 0 0 0 0 0 0 0 0 0 0 0 0 0 0 0 0 0 0 0 0 0 0 0 0 0 0 0 0 0 0 0 0 0 0 0
0 0 0 0 0 0 0 0 0 0 0 0 0 0 0 0 0 0 0 0 0 0 0 0 0 0 0 0 0 0 0 0 0 0 0 0 0 0
0 0 0 0 0 0 0 0 0 0 0 0 0 0 0 0 0 0 0 0 0 0 0 0 0 0 0 0 0 0 0 0 0 0 0 0 0 0
0 0 0 0 0 0 0 0 0 0 0 0 0 0 0 0 0 0 0 0 0 0 0 0 0 0 0 0 0 0 0 0 0 0 0 0 0 0
0 0 0 0 0 0 0 0 0 0 0 0 0 0 0 0 0 0 0 0 0 0 0 0 0 0 0 0 0 0 0 0 0 0 0 0 0 0
0 0 0 0 0 0 0 0 0 0 0 0 0 0 0 0 0 0 0 0 0 0 0 0 0 0 0 0 0 0 0 0 0 0 0 0 0 0
0 0 0 0 0 0 0 0 0 0 0 0 0 0 0 0 0 0 0 0 0 0 0 0 0 0 0 0 0 0 0 0 0 0 0 0 0 0
0 0 0 0 0 0 -0 0 0 0 0 0 0 0 0 0 0 0 0 0 0 0 0 0 0 0 0 0 0 0 0 0 0 0 0 0 0 0
0 0 0 0 0 0 0 0 0 0 0 0 0 0 0 0 0 0 0 0 0 0 0 0 0 0 0 0 0 0 0 0 0 0 0 0 0 0
0 0 0 0 0 0 0 0 0 0 0 0 0 0 0 0 0 0 0 0 0 0 0 0 0 0 0 0 0 0 0 0 0 0 0 0 0 0
-0 -0 0 0 0 0 0 0 0 0 0 0 0 0 0 0 0 0 0 0 0 0 0 0 0 0 0 0 0 0 0 0 0 0 0 0 0 0
-0 -0 -0 -0 0 0 0 0 0 0 0 0 0 0 0 0 0 0 0 0 0 0 0 0 0 0 0 0 0 0 0 0 0 0 0 0 0 0
Wind_Speed
14 15 14 12 11 12 12 10 10 10 12 13 10 9 7 7 7 10 9 11 11 11 12 14 16 17 16 18 19 19 19 19 18 17 17 17 16 15
13 14 14 11 11 10 11 11 10 10 10 8 8 8 9 7 9 9 8 12 11 12 12 13 15 19 22 24 24 23 21 20 18 17 16 16 17 15
15 13 12 11 8 8 8 9 10 9 9 8 6 7 10 10 8 8 9 9 9 14 16 17 19 22 24 25 25 24 22 21 19 17 15 16 17 16
15 14 10 7 7 6 7 9 9 9 8 9 7 8 9 11 10 9 8 7 9 15 18 18 19 21 23 23 23 22 20 19 19 17 16 16 17 17
15 14 12 10 9 7 8 8 8 8 7 6 8 7 6 8 10 8 8 7 10 13 18 19 20 20 21 23 23 22 19 18 17 16 14 15 16 16
14 14 13 12 11 8 6 7 7 7 7 6 8 7 7 9 10 10 9 7 8 10 11 13 17 18 18 20 21 20 19 18 17 15 14 13 13 14
14 13 13 17 20 11 4 5 5 3 3 3 5 5 6 9 9 9 11 10 8 8 10 10 12 11 11 15 16 17 18 17 17 16 16 16 15 14
13 13 12 14 18 22 23 21 16 6 2 1 2 5 4 4 5 8 12 12 8 6 9 8 8 9 9 9 13 16 16 17 17 18 18 17 16 14
12 11 10 12 15 12 18 23 24 27 21 8 7 5 5 5 2 6 7 11 8 5 9 7 6 8 6 9 16 16 17 17 17 17 18 17 15 13
12 11 12 14 15 15 14 15 16 19 20 14 12 12 10 8 6 5 9 11 9 6 4 6 5 6 8 9 15 17 18 18 18 17 16 15 15 13
13 13 14 15 23 23 17 16 16 15 19 26 27 26 28 27 16 6 5 8 6 5 5 5 5 6 6 7 10 17 18 17 17 16 15 14 11 8
10 12 21 22 25 24 16 15 15 14 14 16 19 21 19 22 25 15 8 4 6 5 4 3 5 6 6 4 5 6 10 15 16 14 13 11 6 2
8 9 13 24 25 25 20 15 16 13 12 13 12 13 14 14 15 15 13 9 7 6 4 3 4 4 6 5 3 4 4 5 5 7 9 9 7 4
8 8 12 22 23 24 18 20 20 15 9 10 11 12 12 12 12 13 14 14 13 11 10 7 4 4 5 6 5 5 4 4 4 3 4 5 5 5
10 16 18 20 18 16 21 22 17 11 10 10 11 10 10 10 9 8 10 12 14 13 12 12 8 6 5 6 6 6 5 4 3 2 2 2 2 2
9 12 16 18 15 15 15 13 11 11 10 10 9 9 8 8 9 8 7 6 8 9 11 12 10 9 7 7 6 6 4 4 3 2 1 1 1 1
6 7 8 8 9 9 9 9 9 9 10 9 9 9 9 9 9 9 8 7 7 7 7 7 7 7 8 6 5 5 4 4 3 2 2 2 2 2
8 7 8 8 8 8 8 8 8 8 8 8 8 8 8 8 8 7 7 7 7 7 7 6 4 4 5 7 9 4 4 3 2 2 2 3 4 2
8 7 7 7 7 6 6 6 6 7 6 6 7 7 7 6 6 6 6 6 6 6 6 6 5 3 3 4 5 7 3 2 1 2 2 3 5 5
6 6 6 5 5 5 5 5 5 5 5 5 5 5 6 5 5 5 5 5 4 4 4 4 5 6 5 3 2 1 3 3 2 3 3 4 5 8
5 5 5 5 4 4 4 4 4 4 4 4 4 4 4 4 4 4 3 4 3 3 3 3 4 4 2 1 2 1 0 1 4 4 5 5 5 5
5 5 5 5 4 4 4 4 4 3 3 2 3 2 2 2 2 2 2 2 2 2 2 2 1 2 2 2 2 3 3 4 5 10 11 10 5 4
5 5 5 5 4 4 3 4 4 4 3 3 2 2 2 3 3 3 3 3 2 3 3 3 2 2 3 3 3 4 5 6 5 5 5 8 12 15
Wind_Direction
284 269 262 261 258 258 255 251 256 255 245 240 227 215 207 211 200 204 204 182 183 189 195 199 199 193 180 157 148 146 140 134 130 129 132 131 127 122
296 273 260 257 254 251 248 243 238 249 259 258 236 213 196 195 194 197 172 144 142 139 134 133 136 137 134 131 129 130 131 128 127 129 131 133 128 120
314 294 268 263 262 261 254 243 233 229 242 260 251 214 195 184 177 173 153 148 138 132 126 120 119 120 122 124 128 131 133 133 130 132 148 142 129 121
329 325 313 301 298 300 289 264 243 228 228 244 231 208 197 181 166 158 148 139 137 135 128 123 122 124 127 129 132 134 136 137 137 146 157 142 130 122
337 339 339 338 325 310 306 289 260 236 221 230 235 208 183 166 156 146 135 133 138 137 132 131 131 132 134 136 137 137 137 138 139 149 152 136 124 116
342 345 348 351 339 310 300 299 273 236 222 221 221 198 173 164 161 149 136 131 133 140 134 133 134 134 137 139 139 138 137 138 141 142 133 119 111 108
348 349 351 3 0 4 358 328 299 260 228 208 193 175 162 164 165 161 142 125 116 132 133 139 140 137 135 138 140 140 139 140 140 136 127 115 107 104
353 354 355 7 10 18 34 37 31 19 347 306 148 120 98 118 143 151 145 143 130 112 111 108 132 137 144 148 140 138 137 136 135 132 126 117 110 103
359 1 10 13 23 22 32 37 32 34 38 42 59 59 58 18 91 152 167 147 118 117 121 99 90 93 93 107 124 128 128 127 125 122 119 114 109 103
6 15 26 24 29 31 36 42 39 34 36 39 46 50 56 41 25 60 96 98 90 50 77 106 92 72 59 79 98 108 112 113 112 111 108 105 101 96
15 31 40 38 36 36 34 37 37 29 30 41 45 44 43 45 40 55 100 126 106 57 28 98 116 91 62 46 71 95 100 101 102 102 100 97 98 108
14 35 45 46 40 40 37 36 36 28 26 30 36 36 38 38 39 36 30 73 101 89 29 81 120 118 98 49 37 58 83 89 89 90 92 87 79 101
18 32 44 49 47 43 41 38 39 36 34 36 38 37 38 39 38 38 38 43 64 73 40 65 94 97 113 123 89 65 77 89 97 99 93 82 62 37
32 37 44 48 48 47 44 39 38 37 36 40 41 38 35 38 43 47 49 53 55 57 42 46 75 103 123 122 126 129 120 112 115 113 112 111 103 81
41 55 52 49 46 44 43 41 37 33 33 38 40 40 37 34 37 51 64 63 59 54 47 45 50 57 72 109 123 139 141 133 124 112 97 75 51 26
35 39 45 48 48 45 42 39 37 37 36 36 37 37 37 37 36 31 41 55 64 59 49 47 47 55 71 81 100 117 119 124 126 90 31 357 332 291
47 42 39 36 37 38 41 40 37 35 36 33 32 33 34 37 36 30 36 52 58 57 50 43 53 63 58 62 100 107 113 110 88 48 354 318 296 279
48 44 40 35 33 30 31 34 35 34 31 32 32 32 32 33 36 36 37 45 55 51 42 32 46 106 99 63 30 80 97 91 67 9 317 299 291 279
48 46 41 34 31 28 26 26 29 28 23 27 30 27 27 31 34 35 36 46 54 54 43 31 24 34 120 116 74 33 57 56 356 308 294 289 289 296
39 37 35 31 26 22 20 19 16 16 17 15 20 23 19 20 26 30 32 30 45 54 57 48 38 32 35 44 47 86 31 338 321 308 308 301 288 284
21 19 16 13 11 5 1 1 2 5 9 357 4 9 9 9 13 13 20 22 25 38 43 51 42 6 348 301 265 266 60 316 305 298 308 301 295 284
354 355 356 352 346 342 336 331 330 335 346 339 345 342 337 335 336 328 335 342 352 358 342 346 348 312 295 299 308 310 303 304 276 263 258 255 276 290
332 335 336 337 329 324 318 311 305 309 315 313 304 292 281 277 280 281 278 277 283 287 288 292 288 273 278 278 279 282 283 284 282 278 263 246 254 265